CW4829 Weather Reports


Display with metric or nautical units.
time (UTC)temp
F
wind
direction
speed
MPH
gust
MPH
rain 1hr
in
rain 24hr
in
rain mn
in
humidity
%
barometer
mb
20260902043543 79 217 0.0 0.0 0.00 0.00 0.00 78 1013.8
20260902043055 79 217 0.0 0.0 0.00 0.00 0.00 78 1013.8
20260902042553 80 217 0.0 1.0 0.00 0.00 0.00 78 1013.8
20260902042023 80 217 0.0 2.0 0.00 0.00 0.00 77 1013.8
20260902041520 80 217 0.0 2.0 0.00 0.00 0.00 77 1013.8
20260902041032 80 217 0.0 1.0 0.00 0.00 0.00 77 1013.5
20260902040527 80 217 0.0 2.0 0.00 0.00 0.00 77 1013.5
20260902040035 80 217 0.0 3.0 0.00 0.00 0.00 76 1013.5
20260902035521 81 217 2.0 3.0 0.00 0.00 0.00 76 1013.4
20260902035046 81 217 0.0 3.0 0.00 0.00 0.00 76 1013.4
20260902034558 81 217 1.0 7.0 0.00 0.00 0.00 76 1013.4
20260902033519 81 183 2.0 5.0 0.00 0.00 0.00 76 1013.3
20260902033029 81 205 2.0 5.0 0.00 0.00 0.00 76 1013.3
20260902032544 81 188 1.0 4.0 0.00 0.00 0.00 76 1013.5
20260902031517 81 205 0.0 3.0 0.00 0.00 0.00 76 1013.5
20260902031029 81 205 1.0 8.0 0.00 0.00 0.00 76 1013.5
20260902030601 81 205 1.0 8.0 0.00 0.00 0.00 76 1013.5
20260902030106 81 206 2.0 7.0 0.00 0.00 0.00 76 1013.5
20260902025028 81 211 2.0 4.0 0.00 0.00 0.00 76 1013.4
20260902024532 81 192 1.0 3.0 0.00 0.00 0.00 76 1013.4
20260902024054 81 192 0.0 3.0 0.00 0.00 0.00 76 1013.4
20260902023028 81 191 2.0 4.0 0.00 0.00 0.00 76 1013.4
20260902022538 81 189 1.0 4.0 0.00 0.00 0.00 76 1013.5
20260902022059 81 210 1.0 4.0 0.00 0.00 0.00 76 1013.5
20260902021030 81 182 1.0 3.0 0.00 0.00 0.00 76 1013.5
20260902020605 81 182 1.0 3.0 0.00 0.00 0.00 76 1013.5
20260902020116 81 201 0.0 2.0 0.00 0.00 0.00 77 1013.5
20260902015523 81 201 0.0 3.0 0.00 0.00 0.00 76 1013.5
20260902015036 81 201 0.0 3.0 0.00 0.00 0.00 77 1013.5
20260902014549 81 201 0.0 2.0 0.00 0.00 0.00 77 1013.5
20260902013546 80 201 1.0 2.0 0.00 0.00 0.00 76 1013.4
20260902012517 80 201 1.0 2.0 0.00 0.00 0.00 76 1013.3
20260902012037 80 201 0.0 1.0 0.00 0.00 0.00 76 1013.3
20260902011030 81 201 0.0 0.0 0.00 0.00 0.00 75 1013.3
20260902010603 81 201 0.0 0.0 0.00 0.00 0.00 74 1013.3
20260902005545 82 201 0.0 0.0 0.00 0.00 0.00 72 1013.3
20260902005107 82 201 0.0 0.0 0.00 0.00 0.00 71 1013.3
20260902004607 83 201 0.0 0.0 0.00 0.00 0.00 71 1013.3
20260902003529 84 201 0.0 1.0 0.00 0.00 0.00 70 1013.3
20260902002538 84 201 0.0 0.0 0.00 0.00 0.00 68 1013.3
20260902002101 85 201 0.0 2.0 0.00 0.00 0.00 68 1013.3
20260902001028 85 201 0.0 3.0 0.00 0.00 0.00 67 1013.3
20260902000550 86 201 1.0 4.0 0.00 0.00 0.00 66 1013.3
20260901235517 86 187 0.0 3.0 0.00 0.00 0.00 65 1013.5
20260901235050 86 187 1.0 3.0 0.00 0.00 0.00 65 1013.5
20260901234612 87 187 1.0 3.0 0.00 0.00 0.00 65 1013.5
20260901233553 87 187 1.0 4.0 0.00 0.00 0.00 64 1013.8
20260901232548 87 186 2.0 4.0 0.00 0.00 0.00 64 1013.8
20260901232107 88 174 1.0 4.0 0.00 0.00 0.00 63 1013.8
20260901231037 88 180 1.0 7.0 0.00 0.00 0.00 62 1013.8
20260901230545 89 194 2.0 7.0 0.00 0.00 0.00 62 1013.8
20260901230046 89 181 2.0 4.0 0.00 0.00 0.00 62 1013.8
20260901225602 90 196 2.0 4.0 0.00 0.00 0.00 61 1013.8
20260901224525 90 195 2.0 5.0 0.00 0.00 0.00 61 1013.8
20260901224042 90 190 0.0 4.0 0.00 0.00 0.00 61 1013.8
20260901223550 90 177 1.0 6.0 0.00 0.00 0.00 60 1013.8
20260901223041 90 171 2.0 6.0 0.00 0.00 0.00 60 1013.8
20260901222548 90 175 2.0 7.0 0.00 0.00 0.00 60 1013.9
20260901222115 90 197 2.0 8.0 0.00 0.00 0.00 60 1013.9
20260901221609 90 166 2.0 7.0 0.00 0.00 0.00 59 1013.9
20260901221032 90 184 3.0 7.0 0.00 0.00 0.00 60 1013.9
20260901220610 90 194 3.0 7.0 0.00 0.00 0.00 61 1013.9
20260901215522 90 122 2.0 8.0 0.00 0.00 0.00 61 1014.0
20260901215057 90 200 2.0 8.0 0.00 0.00 0.00 62 1014.0
20260901214030 90 162 2.0 8.0 0.00 0.00 0.00 61 1014.0
20260901213543 90 183 3.0 5.0 0.00 0.00 0.00 62 1014.0
20260901212523 90 166 2.0 4.0 0.00 0.00 0.00 63 1014.0
20260901212049 90 166 1.0 5.0 0.00 0.00 0.00 62 1014.0
20260901211557 89 166 2.0 5.0 0.00 0.00 0.00 62 1014.0
20260901211053 89 227 2.0 6.0 0.00 0.00 0.00 61 1014.2
20260901210034 90 183 1.0 5.0 0.00 0.00 0.00 61 1014.2
20260901205543 89 187 3.0 5.0 0.00 0.00 0.00 60 1014.2
20260901205035 89 205 1.0 6.0 0.00 0.00 0.00 60 1014.2
20260901204546 89 206 3.0 9.0 0.00 0.00 0.00 60 1014.2
20260901203535 90 262 3.0 8.0 0.00 0.00 0.00 60 1014.1
20260901203100 90 290 3.0 8.0 0.00 0.00 0.00 59 1014.1
20260901202024 91 315 3.0 7.0 0.00 0.00 0.00 59 1014.0
20260901201016 91 199 4.0 6.0 0.00 0.00 0.00 59 1014.0
20260901200539 91 196 3.0 7.0 0.00 0.00 0.00 61 1014.0
20260901200053 91 236 2.0 7.0 0.00 0.00 0.00 61 1014.0
20260901195027 90 180 2.0 9.0 0.00 0.00 0.00 63 1013.9
20260901194542 90 146 4.0 12.0 0.00 0.00 0.00 64 1013.9
20260901194026 90 161 4.0 12.0 0.00 0.00 0.00 63 1013.8
20260901193559 89 200 4.0 9.0 0.00 0.00 0.00 64 1013.8
20260901192537 88 161 4.0 8.0 0.00 0.00 0.00 67 1013.8
20260901192103 87 176 2.0 8.0 0.00 0.00 0.00 69 1013.8
20260901191036 86 254 2.0 8.0 0.00 0.00 0.00 74 1013.9
20260901190555 86 167 4.0 8.0 0.00 0.00 0.00 74 1013.9
20260901190049 85 152 3.0 7.0 0.00 0.00 0.00 77 1013.9
20260901185043 84 107 2.0 4.0 0.00 0.00 0.00 81 1014.2
20260901184022 83 121 1.0 2.0 0.00 0.00 0.00 81 1014.6
20260901183542 83 121 1.0 3.0 0.00 0.00 0.00 81 1014.6
20260901182523 83 121 0.0 1.0 0.00 0.00 0.00 81 1014.5
20260901182046 83 121 0.0 1.0 0.00 0.00 0.00 81 1014.5
20260901181559 83 121 0.0 1.0 0.00 0.00 0.00 80 1014.5
20260901180515 83 121 1.0 4.0 0.00 0.00 0.00 78 1014.8
20260901180042 83 115 2.0 4.0 0.00 0.00 0.00 78 1014.8
20260901175612 83 109 1.0 5.0 0.00 0.00 0.00 78 1014.9
20260901175100 83 134 2.0 5.0 0.00 0.00 0.00 78 1014.9
20260901174035 84 211 1.0 4.0 0.00 0.00 0.00 79 1015.3
20260901173600 84 111 1.0 5.0 0.00 0.00 0.00 79 1015.3
20260901173024 83 131 1.0 5.0 0.00 0.00 0.00 79 1015.3
20260901172523 83 123 1.0 3.0 0.00 0.00 0.00 78 1015.5
20260901172045 83 123 2.0 3.0 0.00 0.00 0.00 80 1015.5
20260901171040 82 207 1.0 2.0 0.00 0.00 0.00 80 1015.5
20260901170557 82 207 0.0 3.0 0.00 0.00 0.00 80 1015.5
20260901170111 82 207 1.0 3.0 0.00 0.00 0.00 79 1015.5
20260901165615 83 209 0.0 4.0 0.00 0.00 0.00 79 1015.7
20260901165027 83 209 1.0 5.0 0.00 0.00 0.00 79 1015.7
20260901164547 83 116 1.0 4.0 0.00 0.00 0.00 79 1015.7
20260901164056 83 120 1.0 3.0 0.00 0.00 0.00 81 1015.8
20260901163600 82 117 1.0 3.0 0.00 0.00 0.00 81 1015.8
20260901162537 81 126 1.0 3.0 0.00 0.00 0.00 82 1015.9
20260901162047 81 207 0.0 4.0 0.00 0.00 0.00 83 1015.9
20260901161552 81 207 0.0 4.0 0.00 0.00 0.00 83 1015.9
20260901161022 80 126 1.0 3.0 0.00 0.00 0.00 83 1015.9
20260901160534 80 126 2.0 3.0 0.00 0.00 0.00 83 1015.9
20260901160059 80 126 0.0 4.0 0.00 0.00 0.00 84 1015.9
20260901155022 80 112 1.0 4.0 0.00 0.00 0.00 84 1015.9
20260901154604 79 121 0.0 5.0 0.00 0.00 0.00 84 1015.9
20260901154021 79 114 2.0 5.0 0.00 0.00 0.00 84 1015.9
20260901153532 79 128 2.0 3.0 0.00 0.00 0.00 84 1015.9
20260901153032 79 113 2.0 3.0 0.00 0.00 0.00 83 1015.9
20260901152556 79 119 1.0 3.0 0.00 0.00 0.00 82 1016.5
20260901152104 79 119 1.0 3.0 0.00 0.00 0.00 82 1016.5
20260901151045 80 27 1.0 6.0 0.00 0.00 0.00 80 1016.4
20260901150600 80 350 1.0 4.0 0.00 0.00 0.00 80 1016.4
20260901150117 80 350 2.0 4.0 0.00 0.00 0.00 80 1016.4
20260901145544 80 342 3.0 4.0 0.00 0.00 0.00 79 1015.5
20260901145052 80 351 2.0 6.0 0.00 0.00 0.00 79 1015.5
20260901144613 80 217 1.0 6.0 0.00 0.00 0.00 79 1015.5
20260901144036 80 207 2.0 6.0 0.00 0.00 0.00 79 1015.4
20260901143554 80 188 2.0 8.0 0.00 0.00 0.00 79 1015.4
20260901142530 81 215 3.0 7.0 0.00 0.00 0.00 79 1015.4
20260901142038 81 184 3.0 7.0 0.00 0.00 0.00 79 1015.4
20260901141036 81 159 2.0 7.0 0.00 0.00 0.00 79 1015.3
20260901140521 81 173 3.0 7.0 0.00 0.00 0.00 79 1015.3
20260901140057 81 247 3.0 7.0 0.00 0.00 0.00 79 1015.3
20260901135038 81 272 2.0 12.0 0.00 0.00 0.00 80 1015.0
20260901134557 81 234 4.0 12.0 0.00 0.00 0.00 80 1015.0
20260901133534 80 198 4.0 9.0 0.00 0.00 0.00 82 1014.9
20260901132525 80 186 2.0 8.0 0.00 0.00 0.00 83 1015.0
20260901132051 79 176 2.0 8.0 0.00 0.00 0.00 84 1015.0
20260901131043 78 176 2.0 8.0 0.00 0.00 0.00 84 1015.3
20260901130536 78 184 2.0 8.0 0.00 0.00 0.00 84 1015.3
20260901130035 78 239 1.0 6.0 0.00 0.00 0.00 84 1015.3
20260901125555 78 180 3.0 6.0 0.00 0.00 0.00 84 1015.4
20260901124525 78 161 2.0 8.0 0.00 0.00 0.00 85 1015.4
20260901124113 78 163 2.0 8.0 0.00 0.00 0.00 86 1015.4
20260901123616 77 190 1.0 6.0 0.00 0.00 0.00 86 1015.4
20260901123020 77 205 2.0 6.0 0.00 0.00 0.00 86 1015.4
20260901122537 77 269 2.0 6.0 0.00 0.00 0.00 86 1015.4
20260901122049 77 181 2.0 4.0 0.00 0.00 0.00 87 1015.4
20260901121027 77 202 1.0 4.0 0.00 0.00 0.00 87 1015.3
20260901120543 76 221 2.0 4.0 0.00 0.00 0.00 87 1015.3
20260901120054 76 186 1.0 4.0 0.00 0.00 0.00 87 1015.3
20260901115536 76 186 1.0 3.0 0.00 0.00 0.00 87 1014.9
20260901114534 76 186 0.0 3.0 0.00 0.00 0.00 87 1014.9
20260901113520 76 186 1.0 4.0 0.00 0.00 0.00 87 1014.9
20260901113038 76 261 1.0 5.0 0.00 0.00 0.00 87 1014.9
20260901112600 76 207 1.0 5.0 0.00 0.00 0.00 87 1014.8
20260901112043 76 196 1.0 4.0 0.00 0.00 0.00 87 1014.8
20260901111025 76 184 2.0 4.0 0.00 0.00 0.00 87 1014.7
20260901110529 76 200 1.0 4.0 0.00 0.00 0.00 87 1014.7
20260901110059 76 200 1.0 3.0 0.00 0.00 0.00 87 1014.7
20260901105024 76 200 1.0 4.0 0.00 0.00 0.00 87 1014.6
20260901104555 76 200 1.0 5.0 0.00 0.00 0.00 87 1014.6
20260901104113 76 200 1.0 5.0 0.00 0.00 0.00 87 1014.5
20260901103540 76 193 1.0 4.0 0.00 0.00 0.00 87 1014.5
20260901103047 76 193 1.0 5.0 0.00 0.00 0.00 87 1014.5
20260901102031 76 194 1.0 4.0 0.00 0.00 0.00 87 1014.4
20260901101544 76 194 1.0 4.0 0.00 0.00 0.00 87 1014.4
20260901101025 76 207 1.0 4.0 0.00 0.00 0.00 87 1014.4
20260901100546 76 172 1.0 4.0 0.00 0.00 0.00 87 1014.4
20260901095532 76 172 1.0 3.0 0.00 0.00 0.00 87 1014.4
20260901095047 76 172 1.0 3.0 0.00 0.00 0.00 87 1014.4
20260901094021 76 172 1.0 3.0 0.00 0.00 0.00 87 1014.3
20260901093530 76 172 1.0 3.0 0.00 0.00 0.00 87 1014.3
20260901093103 76 172 1.0 3.0 0.00 0.00 0.00 87 1014.3
20260901092037 76 172 1.0 3.0 0.00 0.00 0.00 87 1014.3
20260901091547 77 172 0.0 4.0 0.00 0.00 0.00 87 1014.3
20260901090551 77 172 1.0 3.0 0.00 0.00 0.00 87 1014.2
20260901090047 77 172 0.0 3.0 0.00 0.00 0.00 87 1014.2
20260901085030 76 172 1.0 5.0 0.00 0.00 0.00 87 1014.3
20260901084039 77 195 1.0 3.0 0.00 0.00 0.00 87 1014.3
20260901083551 77 195 1.0 3.0 0.00 0.00 0.00 87 1014.3
20260901082540 77 195 0.0 2.0 0.00 0.00 0.00 86 1014.1
20260901082044 77 195 1.0 3.0 0.00 0.00 0.00 87 1014.1
20260901081613 77 194 0.0 3.0 0.00 0.00 0.00 87 1014.1
20260901081122 76 195 1.0 3.0 0.00 0.00 0.00 87 1014.1
20260901080618 76 195 0.0 3.0 0.00 0.00 0.00 87 1014.1
20260901080113 76 195 1.0 4.0 0.00 0.00 0.00 87 1014.1
20260901075617 76 165 1.0 3.0 0.00 0.00 0.00 87 1014.0
20260901075112 76 186 1.0 2.0 0.00 0.00 0.00 87 1014.0
20260901074021 76 186 1.0 3.0 0.00 0.00 0.00 87 1014.0
20260901073538 76 186 1.0 2.0 0.00 0.00 0.00 87 1014.0
20260901073039 76 186 1.0 2.0 0.00 0.00 0.00 87 1014.0
20260901072543 76 186 1.0 2.0 0.00 0.00 0.00 87 1014.0
20260901071521 76 186 0.0 2.0 0.00 0.00 0.00 86 1014.0
20260901071051 76 186 0.0 2.0 0.00 0.00 0.00 86 1014.1
20260901070556 76 186 0.0 2.0 0.00 0.00 0.00 86 1014.1
20260901070054 77 186 1.0 2.0 0.00 0.00 0.00 86 1014.1
20260901065538 77 186 1.0 2.0 0.00 0.00 0.00 85 1014.1
20260901065047 77 186 1.0 3.0 0.00 0.00 0.00 85 1014.1
20260901064534 77 186 1.0 4.0 0.00 0.00 0.00 85 1014.1
20260901064036 77 186 2.0 4.0 0.00 0.00 0.00 85 1014.1
20260901063554 77 202 1.0 2.0 0.00 0.00 0.00 85 1014.1
20260901063036 77 202 1.0 3.0 0.00 0.00 0.00 85 1014.1
20260901062605 77 202 2.0 3.0 0.00 0.00 0.00 85 1014.0
20260901061541 77 202 1.0 3.0 0.00 0.00 0.00 85 1014.0
20260901061105 77 202 2.0 4.0 0.00 0.00 0.00 85 1013.9
20260901060037 77 184 1.0 3.0 0.00 0.00 0.00 84 1013.9
20260901055529 77 184 0.0 3.0 0.00 0.00 0.00 84 1014.3
20260901055031 77 184 1.0 3.0 0.00 0.00 0.00 84 1014.3
20260901054554 77 184 1.0 3.0 0.00 0.00 0.00 84 1014.3
20260901054101 77 184 0.0 3.0 0.00 0.00 0.00 84 1014.6
20260901053527 77 184 1.0 3.0 0.00 0.00 0.00 84 1014.6
20260901053019 78 184 0.0 1.0 0.00 0.00 0.00 83 1014.6
20260901052545 78 184 0.0 0.0 0.00 0.00 0.00 83 1014.4
20260901052039 78 184 0.0 1.0 0.00 0.00 0.00 82 1014.4
20260901051542 78 184 0.0 1.0 0.00 0.00 0.00 82 1014.4
20260901051044 78 184 0.0 1.0 0.00 0.00 0.00 82 1014.3
20260901050540 78 184 0.0 1.0 0.00 0.00 0.00 81 1014.3
20260901050036 78 184 0.0 1.0 0.00 0.00 0.00 81 1014.3
20260901045530 79 184 0.0 1.0 0.00 0.00 0.00 80 1014.3
20260901045028 79 184 1.0 2.0 0.00 0.00 0.00 80 1014.3
20260901044555 79 184 1.0 2.0 0.00 0.00 0.00 80 1014.3
20260901044052 79 184 0.0 3.0 0.00 0.00 0.00 80 1014.2